Year,Month,Day,Hour,Minute,Value (Times are PST for temperature in C)
2011,03,31,00,00,8.70
2011,03,31,00,01,8.70
2011,03,31,00,02,8.70
2011,03,31,00,03,8.70
2011,03,31,00,04,8.70
2011,03,31,00,05,8.70
2011,03,31,00,06,8.70
2011,03,31,00,07,8.70
2011,03,31,00,08,8.70
2011,03,31,00,09,8.70
2011,03,31,00,10,8.70
2011,03,31,00,11,8.70
2011,03,31,00,12,8.70
2011,03,31,00,13,8.70
2011,03,31,00,14,8.70
2011,03,31,00,15,8.70
2011,03,31,00,16,8.70
2011,03,31,00,17,8.70
2011,03,31,00,18,8.70
2011,03,31,07,39,7.30
2011,03,31,07,40,7.30
2011,03,31,07,41,7.30
2011,03,31,07,42,7.30
2011,03,31,07,43,7.30
2011,03,31,07,44,7.40
2011,03,31,07,45,7.40
2011,03,31,07,46,7.40
2011,03,31,07,47,7.50
2011,03,31,07,48,7.60
2011,03,31,07,49,7.70
2011,03,31,07,50,7.70
2011,03,31,07,51,7.80
2011,03,31,07,52,7.80
2011,03,31,07,53,7.80
2011,03,31,07,54,7.90
2011,03,31,07,55,7.90
2011,03,31,07,56,7.90
2011,03,31,07,57,8.00
2011,03,31,07,58,8.00
2011,03,31,07,59,8.00
2011,03,31,08,00,8.10
2011,03,31,08,01,8.10
2011,03,31,08,02,8.10
2011,03,31,08,03,8.10
2011,03,31,08,04,8.10
2011,03,31,08,05,8.10
2011,03,31,08,06,8.10
2011,03,31,08,07,8.10
2011,03,31,08,08,8.10
2011,03,31,08,09,8.10
2011,03,31,08,10,8.10
2011,03,31,08,11,8.10
2011,03,31,08,12,8.10
2011,03,31,08,13,8.10
2011,03,31,08,14,8.10
2011,03,31,08,15,8.10
2011,03,31,08,16,8.10
2011,03,31,08,17,8.10
2011,03,31,08,18,8.20
2011,03,31,08,19,8.20
2011,03,31,08,20,8.30
2011,03,31,08,21,8.30
2011,03,31,08,22,8.40
2011,03,31,08,23,8.40
2011,03,31,08,24,8.40
2011,03,31,08,25,8.50
2011,03,31,08,26,8.50
2011,03,31,08,27,8.60
2011,03,31,08,28,8.60
2011,03,31,08,29,8.70
2011,03,31,08,30,8.70
2011,03,31,08,31,8.70
2011,03,31,08,32,8.70
2011,03,31,08,33,8.80
2011,03,31,08,34,8.80
2011,03,31,08,35,8.80
2011,03,31,08,36,8.80
2011,03,31,08,37,8.90
2011,03,31,08,38,8.90
2011,03,31,08,39,9.00
2011,03,31,08,40,9.00
2011,03,31,08,41,9.00
2011,03,31,08,42,9.00
2011,03,31,08,43,9.10
2011,03,31,08,44,9.10
2011,03,31,08,45,9.20
2011,03,31,08,46,9.20
2011,03,31,08,47,9.30
2011,03,31,08,48,9.30
2011,03,31,08,49,9.40
2011,03,31,08,50,9.50
2011,03,31,08,51,9.60
2011,03,31,08,52,9.60
2011,03,31,08,53,9.60
2011,03,31,08,54,9.70
2011,03,31,08,55,9.70
2011,03,31,08,56,9.70
2011,03,31,08,57,9.70
2011,03,31,08,58,9.80
2011,03,31,08,59,9.80
2011,03,31,09,00,9.80
2011,03,31,09,01,9.90
2011,03,31,09,02,10.00
2011,03,31,09,03,10.10
2011,03,31,09,04,10.20
2011,03,31,09,05,10.30
2011,03,31,09,06,10.30
2011,03,31,09,07,10.30
2011,03,31,09,08,10.40
2011,03,31,09,09,10.50
2011,03,31,09,10,10.50
2011,03,31,09,11,10.60
2011,03,31,09,12,10.60
2011,03,31,09,13,10.70
2011,03,31,09,14,10.80
2011,03,31,09,15,10.80
2011,03,31,09,16,11.00
2011,03,31,09,17,11.20
2011,03,31,09,18,11.40
2011,03,31,09,19,11.50
2011,03,31,09,20,11.60
2011,03,31,09,21,11.70
2011,03,31,09,22,11.80
2011,03,31,09,23,11.80
2011,03,31,09,24,11.80
2011,03,31,09,25,11.80
2011,03,31,09,26,11.80
2011,03,31,09,27,11.80
2011,03,31,09,28,11.90
2011,03,31,09,29,11.90
2011,03,31,09,30,11.90
2011,03,31,09,31,12.00
2011,03,31,09,32,12.00
2011,03,31,09,33,11.90
2011,03,31,09,34,11.90
2011,03,31,09,35,12.00
2011,03,31,09,36,12.00
2011,03,31,09,37,12.10
2011,03,31,09,38,12.00
2011,03,31,09,39,12.00
2011,03,31,09,40,11.90
2011,03,31,09,41,11.90
2011,03,31,09,42,11.80
2011,03,31,09,43,11.80
2011,03,31,09,44,11.80
2011,03,31,09,45,11.80
2011,03,31,09,46,11.80
2011,03,31,09,47,11.80
2011,03,31,09,48,11.80
2011,03,31,09,49,11.80
2011,03,31,09,50,11.80
2011,03,31,09,51,11.80
2011,03,31,09,52,11.80
2011,03,31,09,53,11.80
2011,03,31,09,54,11.80
2011,03,31,09,55,11.70
2011,03,31,09,56,11.70
2011,03,31,09,57,11.70
2011,03,31,09,58,11.70
2011,03,31,09,59,11.60
2011,03,31,10,00,11.50
2011,03,31,10,01,11.50
2011,03,31,10,02,11.50
2011,03,31,10,03,11.50
2011,03,31,10,04,11.50
2011,03,31,10,05,11.50
2011,03,31,10,06,11.60
2011,03,31,10,07,11.70
2011,03,31,10,08,11.80
2011,03,31,10,09,11.90
2011,03,31,10,10,11.90
2011,03,31,10,11,12.00
2011,03,31,10,12,12.00
2011,03,31,10,13,12.00
2011,03,31,10,14,12.00
2011,03,31,10,15,12.10
2011,03,31,10,16,12.00
2011,03,31,10,17,12.00
2011,03,31,10,18,12.00
2011,03,31,10,19,12.10
2011,03,31,10,20,12.10
2011,03,31,10,21,12.20
2011,03,31,10,22,12.20
2011,03,31,10,23,12.20
2011,03,31,10,24,12.20
2011,03,31,10,25,12.10
2011,03,31,10,26,12.10
2011,03,31,10,27,12.10
2011,03,31,10,28,12.20
2011,03,31,10,29,12.30
2011,03,31,10,30,12.40
2011,03,31,10,31,12.50
2011,03,31,10,32,12.60
2011,03,31,10,33,12.50
2011,03,31,10,34,12.50
2011,03,31,10,35,12.40
2011,03,31,10,36,12.30
2011,03,31,10,37,12.30
2011,03,31,10,38,12.20
2011,03,31,10,39,12.20
2011,03,31,10,40,12.20
2011,03,31,10,41,12.10
2011,03,31,10,42,12.10
2011,03,31,10,43,12.00
2011,03,31,10,44,12.00
2011,03,31,10,45,11.90
2011,03,31,10,46,11.80
2011,03,31,10,47,11.80
2011,03,31,10,48,11.80
2011,03,31,10,49,11.70
2011,03,31,10,50,11.70
2011,03,31,10,51,11.70
2011,03,31,10,52,11.70
2011,03,31,10,53,11.70
2011,03,31,10,54,11.70
2011,03,31,10,55,11.70
2011,03,31,10,56,11.70
2011,03,31,10,57,11.80
2011,03,31,10,58,11.80
2011,03,31,10,59,11.90
2011,03,31,11,00,11.90
2011,03,31,11,01,12.00
2011,03,31,11,02,12.10
2011,03,31,11,03,12.10
2011,03,31,11,04,12.20
2011,03,31,11,05,12.20
2011,03,31,11,06,12.20
2011,03,31,11,07,12.20
2011,03,31,11,08,12.30
2011,03,31,11,09,12.30
2011,03,31,11,10,12.30
2011,03,31,11,11,12.30
2011,03,31,11,12,12.30
2011,03,31,11,13,12.20
2011,03,31,11,14,12.20
2011,03,31,11,15,12.20
2011,03,31,11,16,12.20
2011,03,31,11,17,12.00
2011,03,31,11,18,11.90
2011,03,31,11,19,11.70
2011,03,31,11,20,11.60
2011,03,31,11,21,11.50
2011,03,31,11,22,11.40
2011,03,31,11,23,11.40
2011,03,31,11,24,11.40
2011,03,31,11,25,11.40
2011,03,31,11,26,11.50
2011,03,31,11,27,11.60
2011,03,31,11,28,11.70
2011,03,31,11,29,11.70
2011,03,31,11,30,11.80
2011,03,31,11,31,11.80
2011,03,31,11,32,11.90
2011,03,31,11,33,11.90
2011,03,31,11,34,12.00
2011,03,31,11,35,12.10
2011,03,31,11,36,12.10
2011,03,31,11,37,12.20
2011,03,31,11,38,12.30
2011,03,31,11,39,12.30
2011,03,31,11,40,12.30
2011,03,31,11,41,12.30
2011,03,31,11,42,12.30
2011,03,31,11,43,12.30
2011,03,31,11,44,12.30
2011,03,31,11,45,12.30
2011,03,31,11,46,12.40
2011,03,31,11,47,12.40
2011,03,31,11,48,12.50
2011,03,31,11,49,12.50
2011,03,31,11,50,12.60
2011,03,31,11,51,12.60
2011,03,31,11,52,12.70
2011,03,31,11,53,12.70
2011,03,31,11,54,12.70
2011,03,31,11,55,12.70
2011,03,31,11,56,12.70
2011,03,31,11,57,12.70
2011,03,31,11,58,12.70
2011,03,31,11,59,12.70
2011,03,31,12,00,12.70
2011,03,31,12,01,12.70
2011,03,31,12,02,12.60
2011,03,31,12,03,12.60
2011,03,31,12,04,12.60
2011,03,31,12,05,12.50
2011,03,31,12,06,12.50
2011,03,31,12,07,12.40
2011,03,31,12,08,12.40
2011,03,31,12,09,12.40
2011,03,31,12,10,12.40
2011,03,31,12,11,12.30
2011,03,31,12,12,12.30
2011,03,31,12,13,12.30
2011,03,31,12,14,12.40
2011,03,31,12,15,12.40
2011,03,31,12,16,12.50
2011,03,31,12,17,12.60
2011,03,31,12,18,12.60
2011,03,31,12,19,12.50
2011,03,31,12,20,12.50
2011,03,31,12,21,12.40
2011,03,31,12,22,12.40
2011,03,31,12,23,12.40
2011,03,31,12,24,12.40
2011,03,31,12,25,12.40
2011,03,31,12,26,12.40
2011,03,31,12,27,12.40
2011,03,31,12,28,12.40
2011,03,31,12,29,12.30
2011,03,31,12,30,12.30
2011,03,31,12,31,12.30
2011,03,31,12,32,12.30
2011,03,31,12,33,12.30
2011,03,31,12,34,12.30
2011,03,31,12,35,12.20
2011,03,31,12,36,12.20
2011,03,31,12,37,12.10
2011,03,31,12,38,12.10
2011,03,31,12,39,12.10
2011,03,31,12,40,12.10
2011,03,31,12,41,12.00
2011,03,31,12,42,12.00
2011,03,31,12,43,11.90
2011,03,31,12,44,11.90
2011,03,31,12,45,12.00
2011,03,31,12,46,12.10
2011,03,31,12,47,12.10
2011,03,31,12,48,12.20
2011,03,31,12,49,12.20
2011,03,31,12,50,12.20
2011,03,31,12,51,12.10
2011,03,31,12,52,12.10
2011,03,31,12,53,12.00
2011,03,31,12,54,11.90
2011,03,31,12,55,11.90
2011,03,31,12,56,11.90
2011,03,31,12,57,11.90
2011,03,31,12,58,11.90
2011,03,31,12,59,11.90
2011,03,31,13,00,12.00
2011,03,31,13,01,12.00
2011,03,31,13,02,12.10
2011,03,31,13,03,12.10
2011,03,31,13,04,12.10
2011,03,31,13,05,12.10
2011,03,31,13,06,12.10
2011,03,31,13,07,12.00
2011,03,31,13,08,11.90
2011,03,31,13,09,11.80
2011,03,31,13,10,11.80
2011,03,31,13,11,11.80
2011,03,31,13,12,11.80
2011,03,31,13,13,11.80
2011,03,31,13,14,11.80
2011,03,31,13,15,11.80
2011,03,31,13,16,11.90
2011,03,31,13,17,11.90
2011,03,31,13,18,12.00
2011,03,31,13,19,12.10
2011,03,31,13,20,12.20
2011,03,31,13,21,12.20
2011,03,31,13,22,12.30
2011,03,31,13,23,12.30
2011,03,31,13,24,12.30
2011,03,31,13,25,12.40
2011,03,31,13,26,12.30
2011,03,31,13,27,12.30
2011,03,31,13,28,12.30
2011,03,31,13,29,12.30
2011,03,31,13,30,12.20
2011,03,31,13,31,12.20
2011,03,31,13,32,12.20
2011,03,31,13,33,12.30
2011,03,31,13,34,12.30
2011,03,31,13,35,12.40
2011,03,31,13,36,12.40
2011,03,31,13,37,12.40
2011,03,31,13,38,12.40
2011,03,31,13,39,12.40
2011,03,31,13,40,12.40
2011,03,31,13,41,12.40
2011,03,31,13,42,12.40
2011,03,31,13,43,12.50
2011,03,31,13,44,12.50
2011,03,31,13,45,12.60
2011,03,31,13,46,12.60
2011,03,31,13,47,12.70
2011,03,31,13,48,12.70
2011,03,31,13,49,12.70
2011,03,31,13,50,12.70
2011,03,31,13,51,12.80
2011,03,31,13,52,12.80
2011,03,31,13,53,12.80
2011,03,31,13,54,12.80
2011,03,31,13,55,12.90
2011,03,31,13,56,12.90
2011,03,31,13,57,12.90
2011,03,31,13,58,12.80
2011,03,31,13,59,12.80
2011,03,31,14,00,12.80
2011,03,31,14,01,12.70
2011,03,31,14,02,12.70
2011,03,31,14,03,12.70
2011,03,31,14,04,12.70
2011,03,31,14,05,12.80
2011,03,31,14,06,12.80
2011,03,31,14,07,12.80
2011,03,31,14,08,12.80
2011,03,31,14,09,12.80
2011,03,31,14,10,12.80
2011,03,31,14,11,12.80
2011,03,31,14,12,12.80
2011,03,31,14,13,12.80
2011,03,31,14,14,12.80
2011,03,31,14,15,12.80
2011,03,31,14,16,12.80
2011,03,31,14,17,12.80
2011,03,31,14,18,12.80
2011,03,31,14,19,12.80
2011,03,31,14,20,12.80
2011,03,31,14,21,12.80
2011,03,31,14,22,12.80
2011,03,31,14,23,12.70
2011,03,31,14,24,12.80
2011,03,31,14,25,12.80
2011,03,31,14,26,12.80
2011,03,31,14,27,12.80
2011,03,31,14,28,12.80
2011,03,31,14,29,12.80
2011,03,31,14,30,12.80
2011,03,31,14,31,12.70
2011,03,31,14,32,12.70
2011,03,31,14,33,12.60
2011,03,31,14,34,12.60
2011,03,31,14,35,12.60
2011,03,31,14,36,12.60
2011,03,31,14,37,12.60
2011,03,31,14,38,12.60
2011,03,31,14,39,12.60
2011,03,31,14,40,12.60
2011,03,31,14,41,12.70
2011,03,31,14,42,12.70
2011,03,31,14,43,12.80
2011,03,31,14,44,12.90
2011,03,31,14,45,12.90
2011,03,31,14,46,13.00
2011,03,31,14,47,13.00
2011,03,31,14,48,13.00
2011,03,31,14,49,13.00
2011,03,31,14,50,12.90
2011,03,31,14,51,12.90
2011,03,31,14,52,12.90
2011,03,31,14,53,12.90
2011,03,31,14,54,12.80
2011,03,31,14,55,12.80
2011,03,31,14,56,12.90
2011,03,31,14,57,12.90
2011,03,31,14,58,12.90
2011,03,31,14,59,12.90
2011,03,31,15,00,12.90
2011,03,31,15,01,12.80
2011,03,31,15,02,12.80
2011,03,31,15,03,12.80
2011,03,31,15,04,12.70
2011,03,31,15,05,12.70
2011,03,31,15,06,12.60
2011,03,31,15,07,12.60
2011,03,31,15,08,12.60
2011,03,31,15,09,12.60
2011,03,31,15,10,12.60
2011,03,31,15,11,12.60
2011,03,31,15,12,12.60
2011,03,31,15,13,12.70
2011,03,31,15,14,12.70
2011,03,31,15,15,12.80
2011,03,31,15,16,12.80
2011,03,31,15,17,12.80
2011,03,31,15,18,12.80
2011,03,31,15,19,12.80
2011,03,31,15,20,12.80
2011,03,31,15,21,12.90
2011,03,31,15,22,12.90
2011,03,31,15,23,12.90
2011,03,31,15,24,13.00
2011,03,31,15,25,13.00
2011,03,31,15,26,13.00
2011,03,31,15,27,13.10
2011,03,31,15,28,13.00
2011,03,31,15,29,13.00
2011,03,31,15,30,12.90
2011,03,31,15,31,12.80
2011,03,31,15,32,12.80
2011,03,31,15,33,12.80
2011,03,31,15,34,12.80
2011,03,31,15,35,12.90
2011,03,31,15,36,12.90
2011,03,31,15,37,12.90
2011,03,31,15,38,12.90
2011,03,31,15,39,12.90
2011,03,31,15,40,12.80
2011,03,31,15,41,12.80
2011,03,31,15,42,12.80
2011,03,31,15,43,12.80
2011,03,31,15,44,12.70
2011,03,31,15,45,12.70
2011,03,31,15,46,12.80
2011,03,31,15,47,12.80
2011,03,31,15,48,12.90
2011,03,31,15,49,12.90
2011,03,31,15,50,12.90
2011,03,31,15,51,12.90
2011,03,31,15,52,12.90
2011,03,31,15,53,12.90
2011,03,31,15,54,12.90
2011,03,31,15,55,12.90
2011,03,31,15,56,12.80
2011,03,31,15,57,12.70
2011,03,31,15,58,12.70
2011,03,31,15,59,12.70
2011,03,31,16,00,12.60
2011,03,31,16,01,12.60
2011,03,31,16,02,12.70
2011,03,31,16,03,12.70
2011,03,31,16,04,12.80
2011,03,31,16,05,12.80
2011,03,31,16,06,12.90
2011,03,31,16,07,12.90
2011,03,31,16,08,12.90
2011,03,31,16,09,12.90
2011,03,31,16,10,12.90
2011,03,31,16,11,12.90
2011,03,31,16,12,12.90
2011,03,31,16,13,13.00
2011,03,31,16,14,13.00
2011,03,31,16,15,13.00
2011,03,31,16,16,13.00
2011,03,31,16,17,13.10
2011,03,31,16,18,13.20
2011,03,31,16,19,13.30
2011,03,31,16,20,13.30
2011,03,31,16,21,13.30
2011,03,31,16,22,13.30
2011,03,31,16,23,13.30
2011,03,31,16,24,13.30
2011,03,31,16,25,13.30
2011,03,31,16,26,13.30
2011,03,31,16,27,13.40
2011,03,31,16,28,13.40
2011,03,31,16,29,13.40
2011,03,31,16,30,13.40
2011,03,31,16,31,13.50
2011,03,31,16,32,13.50
2011,03,31,16,33,13.60
2011,03,31,16,34,13.60
2011,03,31,16,35,13.60
2011,03,31,16,36,13.70
2011,03,31,16,37,13.70
2011,03,31,16,38,13.70
2011,03,31,16,39,13.80
2011,03,31,16,40,13.80
2011,03,31,16,41,13.80
2011,03,31,16,42,13.90
2011,03,31,16,43,13.90
2011,03,31,16,44,13.90
2011,03,31,16,45,13.90
2011,03,31,16,46,14.00
2011,03,31,16,47,14.00
2011,03,31,16,48,14.10
2011,03,31,16,49,14.20
2011,03,31,16,50,14.30
2011,03,31,16,51,14.40
2011,03,31,16,52,14.60
2011,03,31,16,53,14.70
2011,03,31,16,54,14.90
2011,03,31,16,55,15.00
2011,03,31,16,56,15.00
2011,03,31,16,57,15.00
2011,03,31,16,58,14.80
2011,03,31,16,59,14.80
2011,03,31,17,00,14.70
2011,03,31,17,01,14.70
2011,03,31,17,02,14.80
2011,03,31,17,03,14.80
2011,03,31,17,04,15.00
2011,03,31,17,05,15.00
2011,03,31,17,06,15.00
2011,03,31,17,07,15.00
2011,03,31,17,08,15.00
2011,03,31,17,09,15.00
2011,03,31,17,10,15.10
2011,03,31,17,11,15.10
2011,03,31,17,12,15.20
2011,03,31,17,13,15.20
2011,03,31,17,14,15.30
2011,03,31,17,15,15.30
2011,03,31,17,16,15.20
2011,03,31,17,17,15.20
2011,03,31,17,18,15.10
2011,03,31,17,19,15.00
2011,03,31,17,20,15.00
2011,03,31,17,21,15.00
2011,03,31,17,22,15.00
2011,03,31,17,23,15.00
2011,03,31,17,24,15.00
2011,03,31,17,25,15.00
2011,03,31,17,26,15.00
2011,03,31,17,27,15.00
2011,03,31,17,28,15.00
2011,03,31,17,29,15.00
2011,03,31,17,30,15.00
2011,03,31,17,31,14.90
2011,03,31,17,32,14.90
2011,03,31,17,33,14.90
2011,03,31,17,34,14.80
2011,03,31,17,35,14.80
2011,03,31,17,36,14.80
2011,03,31,17,37,14.70
2011,03,31,17,38,14.70
2011,03,31,17,39,14.70
2011,03,31,17,40,14.60
2011,03,31,17,41,14.60
2011,03,31,17,42,14.60
2011,03,31,17,43,14.60
2011,03,31,17,44,14.60
2011,03,31,17,45,14.50
2011,03,31,17,46,14.50
2011,03,31,17,47,14.50
2011,03,31,17,48,14.50
2011,03,31,17,49,14.50
2011,03,31,17,50,14.50
2011,03,31,17,51,14.50
2011,03,31,17,52,14.50
2011,03,31,17,53,14.50
2011,03,31,17,54,14.40
2011,03,31,17,55,14.40
2011,03,31,17,56,14.40
2011,03,31,17,57,14.40
2011,03,31,17,58,14.30
2011,03,31,17,59,14.30
2011,03,31,18,00,14.30
2011,03,31,18,01,14.30
2011,03,31,18,02,14.30
2011,03,31,18,03,14.30
2011,03,31,18,04,14.20
2011,03,31,18,05,14.20
2011,03,31,18,06,14.20
2011,03,31,18,07,14.10
2011,03,31,18,08,14.00
2011,03,31,18,09,14.00
2011,03,31,18,10,13.90
2011,03,31,18,11,13.80
2011,03,31,18,12,13.80
2011,03,31,18,13,13.70
2011,03,31,18,14,13.70
2011,03,31,18,15,13.70
2011,03,31,18,16,13.70
2011,03,31,18,17,13.70
2011,03,31,18,18,13.70
2011,03,31,18,19,13.70
2011,03,31,18,20,13.70
2011,03,31,18,21,13.60
2011,03,31,18,22,13.60
2011,03,31,18,23,13.60
2011,03,31,18,24,13.60
2011,03,31,18,25,13.60
2011,03,31,18,26,13.50
2011,03,31,18,27,13.50
2011,03,31,18,28,13.50
2011,03,31,18,29,13.40
2011,03,31,18,30,13.40
2011,03,31,18,31,13.40
2011,03,31,18,32,13.40
2011,03,31,18,33,13.30
2011,03,31,18,34,13.30
2011,03,31,18,35,13.20
2011,03,31,18,36,13.20
2011,03,31,18,37,13.20
2011,03,31,18,38,13.10
2011,03,31,18,39,13.10
2011,03,31,18,40,13.00
2011,03,31,18,41,12.90
2011,03,31,18,42,12.90
2011,03,31,18,43,12.80
2011,03,31,18,44,12.80
2011,03,31,18,45,12.70
2011,03,31,18,46,12.70
2011,03,31,18,47,12.70
2011,03,31,18,48,12.60
2011,03,31,18,49,12.60
2011,03,31,18,50,12.60
2011,03,31,18,51,12.60
2011,03,31,18,52,12.50
2011,03,31,18,53,12.50
2011,03,31,18,54,12.50
2011,03,31,18,55,12.40
2011,03,31,18,56,12.40
2011,03,31,18,57,12.40
2011,03,31,18,58,12.40
2011,03,31,18,59,12.40
2011,03,31,19,00,12.40
2011,03,31,19,01,12.30
2011,03,31,19,02,12.30
2011,03,31,19,03,12.30
2011,03,31,19,04,12.30
2011,03,31,19,05,12.30
2011,03,31,19,06,12.30
2011,03,31,19,07,12.30
2011,03,31,19,08,12.30
2011,03,31,19,09,12.30
2011,03,31,19,10,12.30
2011,03,31,19,11,12.30
2011,03,31,19,12,12.30
2011,03,31,19,13,12.30
2011,03,31,19,14,12.30
2011,03,31,19,15,12.20
2011,03,31,19,16,12.20
2011,03,31,19,17,12.20
2011,03,31,19,18,12.20
2011,03,31,19,19,12.20
2011,03,31,19,20,12.20
2011,03,31,19,21,12.10
2011,03,31,19,22,12.10
2011,03,31,19,23,12.10
2011,03,31,19,24,12.10
2011,03,31,19,25,12.10
2011,03,31,19,26,12.00
2011,03,31,19,27,12.00
2011,03,31,19,28,12.00
2011,03,31,19,29,11.90
2011,03,31,19,30,11.90
2011,03,31,19,31,11.90
2011,03,31,19,32,11.90
2011,03,31,19,33,11.90
2011,03,31,19,34,11.90
2011,03,31,19,35,11.80
2011,03,31,19,36,11.80
2011,03,31,19,37,11.80
2011,03,31,19,38,11.80
2011,03,31,19,39,11.80
2011,03,31,19,40,11.80
2011,03,31,19,41,11.80
2011,03,31,19,42,11.70
2011,03,31,19,43,11.70
2011,03,31,19,44,11.70
2011,03,31,19,45,11.70
2011,03,31,19,46,11.70
2011,03,31,19,47,11.60
2011,03,31,19,48,11.60
2011,03,31,19,49,11.50
2011,03,31,19,50,11.50
2011,03,31,19,51,11.40
2011,03,31,19,52,11.40
2011,03,31,19,53,11.40
2011,03,31,19,54,11.40
2011,03,31,19,55,11.40
2011,03,31,19,56,11.30
2011,03,31,19,57,11.30
2011,03,31,19,58,11.20
2011,03,31,19,59,11.20
2011,03,31,20,00,11.10
2011,03,31,20,01,11.00
2011,03,31,20,02,11.00
2011,03,31,20,03,10.90
2011,03,31,20,04,10.80
2011,03,31,20,05,10.70
2011,03,31,20,06,10.60
2011,03,31,20,07,10.50
2011,03,31,20,08,10.40
2011,03,31,20,09,10.30
2011,03,31,20,10,10.30
2011,03,31,20,11,10.20
2011,03,31,20,12,10.10
2011,03,31,20,13,10.00
2011,03,31,20,14,9.90
2011,03,31,20,15,9.90
2011,03,31,20,16,9.80
2011,03,31,20,17,9.80
2011,03,31,20,18,9.90
2011,03,31,20,19,9.90
2011,03,31,20,20,10.00
2011,03,31,20,21,10.00
2011,03,31,20,22,10.10
2011,03,31,20,23,10.10
2011,03,31,20,24,10.10
2011,03,31,20,25,10.20
2011,03,31,20,26,10.20
2011,03,31,20,27,10.20
2011,03,31,20,28,10.20
2011,03,31,20,29,10.20
2011,03,31,20,30,10.20
2011,03,31,20,31,10.20
2011,03,31,20,32,10.30
2011,03,31,20,33,10.30
2011,03,31,20,34,10.30
2011,03,31,20,35,10.30
2011,03,31,20,36,10.30
2011,03,31,20,37,10.30
2011,03,31,20,38,10.30
2011,03,31,20,39,10.40
2011,03,31,20,40,10.40
2011,03,31,20,41,10.40
2011,03,31,20,42,10.40
2011,03,31,20,43,10.40
2011,03,31,20,44,10.30
2011,03,31,20,45,10.30
2011,03,31,20,46,10.30
2011,03,31,20,47,10.30
2011,03,31,20,48,10.20
2011,03,31,20,49,10.20
2011,03,31,20,50,10.20
2011,03,31,20,51,10.20
2011,03,31,20,52,10.10
2011,03,31,20,53,10.10
2011,03,31,20,54,10.00
2011,03,31,20,55,10.00
2011,03,31,20,56,10.00
2011,03,31,20,57,9.90
2011,03,31,20,58,9.80
2011,03,31,20,59,9.80
2011,03,31,21,00,9.70
2011,03,31,21,01,9.60
2011,03,31,21,02,9.60
2011,03,31,21,03,9.60
2011,03,31,21,04,9.50
2011,03,31,21,05,9.50
2011,03,31,21,06,9.50
2011,03,31,21,07,9.40
2011,03,31,21,08,9.40
2011,03,31,21,09,9.40
2011,03,31,21,10,9.40
2011,03,31,21,11,9.40
2011,03,31,21,12,9.40
2011,03,31,21,13,9.30
2011,03,31,21,14,9.30
2011,03,31,21,15,9.30
2011,03,31,21,16,9.20
2011,03,31,21,17,9.20
2011,03,31,21,18,9.10
2011,03,31,21,19,9.00
2011,03,31,21,20,8.90
2011,03,31,21,21,8.90
2011,03,31,21,22,8.90
2011,03,31,21,23,8.80
2011,03,31,21,24,8.80
2011,03,31,21,25,8.80
2011,03,31,21,26,8.70
2011,03,31,21,27,8.70
2011,03,31,21,28,8.60
2011,03,31,21,29,8.50
2011,03,31,21,30,8.50
2011,03,31,21,31,8.40
2011,03,31,21,32,8.40
2011,03,31,21,33,8.40
2011,03,31,21,34,8.40
2011,03,31,21,35,8.40
2011,03,31,21,36,8.40
2011,03,31,21,37,8.50
2011,03,31,21,38,8.50
2011,03,31,21,39,8.60
2011,03,31,21,40,8.60
2011,03,31,21,41,8.60
2011,03,31,21,42,8.60
2011,03,31,21,43,8.60
2011,03,31,21,44,8.60
2011,03,31,21,45,8.50
2011,03,31,21,46,8.50
2011,03,31,21,47,8.40
2011,03,31,21,48,8.40
2011,03,31,21,49,8.30
2011,03,31,21,50,8.20
2011,03,31,21,51,8.20
2011,03,31,21,52,8.20
2011,03,31,21,53,8.10
2011,03,31,21,54,8.10
2011,03,31,21,55,8.10
2011,03,31,21,56,8.00
2011,03,31,21,57,8.00
2011,03,31,21,58,8.00
2011,03,31,21,59,7.90
2011,03,31,22,00,7.90
2011,03,31,22,01,7.80
2011,03,31,22,02,7.80
2011,03,31,22,03,7.80
2011,03,31,22,04,7.80
2011,03,31,22,05,7.80
2011,03,31,22,06,7.70
2011,03,31,22,07,7.70
2011,03,31,22,08,7.70
2011,03,31,22,09,7.60
2011,03,31,22,10,7.60
2011,03,31,22,11,7.50
2011,03,31,22,12,7.50
2011,03,31,22,13,7.40
2011,03,31,22,14,7.40
2011,03,31,22,15,7.40
2011,03,31,22,16,7.40
2011,03,31,22,17,7.30
2011,03,31,22,18,7.30
2011,03,31,22,19,7.30
2011,03,31,22,20,7.30
2011,03,31,22,21,7.30
2011,03,31,22,22,7.30
2011,03,31,22,23,7.30
2011,03,31,22,24,7.30
2011,03,31,22,25,7.20
2011,03,31,22,26,7.20
2011,03,31,22,27,7.20
2011,03,31,22,28,7.20
2011,03,31,22,29,7.20
2011,03,31,22,30,7.20
2011,03,31,22,31,7.30
2011,03,31,22,32,7.20
2011,03,31,22,33,7.20
2011,03,31,22,34,7.20
2011,03,31,22,35,7.20
2011,03,31,22,36,7.20
2011,03,31,22,37,7.20
2011,03,31,22,38,7.20
2011,03,31,22,39,7.20
2011,03,31,22,40,7.20
2011,03,31,22,41,7.20
2011,03,31,22,42,7.20
2011,03,31,22,43,7.20
2011,03,31,22,44,7.20
2011,03,31,22,45,7.20
2011,03,31,22,46,7.20
2011,03,31,22,47,7.20
2011,03,31,22,48,7.20
2011,03,31,22,49,7.20
2011,03,31,22,50,7.20
2011,03,31,22,51,7.20
2011,03,31,22,52,7.20
2011,03,31,22,53,7.20
2011,03,31,22,54,7.20
2011,03,31,22,55,7.20
2011,03,31,22,56,7.20
2011,03,31,22,57,7.20
2011,03,31,22,58,7.20
2011,03,31,22,59,7.20
2011,03,31,23,00,7.20
2011,03,31,23,01,7.20
2011,03,31,23,02,7.30
2011,03,31,23,03,7.30
2011,03,31,23,04,7.30
2011,03,31,23,05,7.30
2011,03,31,23,06,7.30
2011,03,31,23,07,7.40
2011,03,31,23,08,7.40
2011,03,31,23,09,7.40
2011,03,31,23,10,7.40
2011,03,31,23,11,7.50
2011,03,31,23,12,7.50
2011,03,31,23,13,7.50
2011,03,31,23,14,7.50
2011,03,31,23,15,7.50
2011,03,31,23,16,7.50
2011,03,31,23,17,7.50
2011,03,31,23,18,7.40
2011,03,31,23,19,7.40
2011,03,31,23,20,7.40
2011,03,31,23,21,7.40
2011,03,31,23,22,7.30
2011,03,31,23,23,7.30
2011,03,31,23,24,7.30
2011,03,31,23,25,7.30
2011,03,31,23,26,7.30
2011,03,31,23,27,7.30
2011,03,31,23,28,7.30
2011,03,31,23,29,7.20
2011,03,31,23,30,7.20
2011,03,31,23,31,7.20
2011,03,31,23,32,7.20
2011,03,31,23,33,7.20
2011,03,31,23,34,7.20
2011,03,31,23,35,7.20
2011,03,31,23,36,7.20
2011,03,31,23,37,7.20
2011,03,31,23,38,7.20
2011,03,31,23,39,7.20
2011,03,31,23,40,7.20
2011,03,31,23,41,7.20
2011,03,31,23,42,7.20
2011,03,31,23,43,7.20
2011,03,31,23,44,7.20
2011,03,31,23,45,7.20
2011,03,31,23,46,7.30
2011,03,31,23,47,7.30
2011,03,31,23,48,7.30
2011,03,31,23,49,7.30
2011,03,31,23,50,7.30
2011,03,31,23,51,7.30
2011,03,31,23,52,7.30
2011,03,31,23,53,7.30
2011,03,31,23,54,7.30
2011,03,31,23,55,7.40
2011,03,31,23,56,7.40
2011,03,31,23,57,7.40
2011,03,31,23,58,7.50
2011,03,31,23,59,7.50
